Weather History for KAIZ - May, 2013

Change the Weather History Date:

Friday, May 31, 2013

  Actual Average Record
Temperature  
Mean Temperature 73 °F -  
Max Temperature 84 °F 75 °F 91 °F (2000)
Min Temperature 62 °F 55 °F 50 °F (1997)
Cooling Degree Days 8    
Growing Degree Days 23 (Base 50)    
Moisture  
Dew Point 65 °F    
Average Humidity 85    
Maximum Humidity 94    
Minimum Humidity 62    
Precipitation  
Precipitation 1.60 in - - ()
Sea Level Pressure  
Sea Level Pressure 29.79 in    
Wind  
Wind Speed 7 mph (SSE)    
Max Wind Speed 17 mph    
Max Gust Speed 28 mph    
Averages and records for this station are not official NWS values.
T = Trace of Precipitation, MM = Missing Value Source: NWS Daily Summary

Daily Weather History Graph

Daily Weather History Graph

Search for Another Location

Airport or City:

Trip Planner

Search our weather history database for the weather conditions in past years. The results will help you decide how hot, cold, wet, or windy it might be!

Date:

Astronomy

May. 31, 2013 Rise Set
Actual Time 5:49 AM CDT 8:26 PM CDT
Civil Twilight 5:18 AM CDT 8:57 PM CDT
Nautical Twilight 4:40 AM CDT 9:36 PM CDT
Astronomical Twilight 3:57 AM CDT 10:19 PM CDT
Moon 1:06 AM CDT (5/31) 1:00 PM CDT (5/31)
Length of Visible Light 15h 39m
Length of Day
14h 37m
Waning Gibbous, 51% of the Moon is Illuminated
May 31
Waning Gibbous
May 31
Last Quarter
Jun 8
New
Jun 16
First Quarter
Jun 23
Full

Hourly Weather History & Observations

Time (CDT) Temp. Heat Index Dew Point Humidity Pressure Visibility Wind Dir Wind Speed Gust Speed Precip Events Conditions
12:15 AM 64.4 °F - 60.8 °F 88% 29.81 in - South 5.8 mph - N/A   Unknown
12:35 AM 64.4 °F - 60.8 °F 88% 29.80 in - SSE 8.1 mph - N/A   Unknown
12:55 AM 64.4 °F - 60.8 °F 88% 29.79 in - SSE 6.9 mph - N/A   Unknown
1:15 AM 64.4 °F - 60.8 °F 88% 29.79 in - SSE 4.6 mph - N/A   Unknown
1:35 AM 64.4 °F - 60.8 °F 88% 29.79 in - SE 3.5 mph - N/A   Unknown
1:55 AM 62.6 °F - 60.8 °F 94% 29.78 in - Calm Calm - N/A   Unknown
2:15 AM 62.6 °F - 60.8 °F 94% 29.78 in - SE 3.5 mph - N/A   Unknown
2:35 AM 62.6 °F - 60.8 °F 94% 29.78 in - ESE 3.5 mph - N/A   Unknown
2:55 AM 64.4 °F - 60.8 °F 88% 29.80 in - SE 3.5 mph - N/A   Unknown
3:15 AM 64.4 °F - 60.8 °F 88% 29.80 in - SSE 3.5 mph - N/A   Unknown
3:35 AM 64.4 °F - 62.6 °F 94% 29.81 in - South 5.8 mph - N/A   Unknown
3:55 AM 64.4 °F - 62.6 °F 94% 29.81 in - SSE 5.8 mph - N/A   Unknown
4:15 AM 66.2 °F - 62.6 °F 88% 29.80 in - South 6.9 mph - N/A   Unknown
4:35 AM 66.2 °F - 62.6 °F 88% 29.79 in - South 9.2 mph 16.1 mph N/A   Unknown
4:55 AM 66.2 °F - 62.6 °F 88% 29.79 in - South 11.5 mph 19.6 mph N/A   Unknown
5:15 AM 66.2 °F - 62.6 °F 88% 29.79 in - South 10.4 mph 16.1 mph N/A   Unknown
5:35 AM 66.2 °F - 62.6 °F 88% 29.79 in - South 6.9 mph 16.1 mph N/A   Unknown
5:55 AM 66.2 °F - 62.6 °F 88% 29.77 in - South 10.4 mph - N/A   Unknown
6:15 AM 66.2 °F - 62.6 °F 88% 29.78 in - South 9.2 mph - N/A   Unknown
6:35 AM 66.2 °F - 62.6 °F 88% 29.79 in - SSE 9.2 mph 20.7 mph N/A   Mostly Cloudy
6:55 AM 66.2 °F - 62.6 °F 88% 29.79 in - South 12.7 mph 16.1 mph N/A   Overcast
7:15 AM 66.2 °F - 62.6 °F 88% 29.79 in - South 9.2 mph - N/A   Unknown
7:35 AM 68.0 °F - 62.6 °F 83% 29.79 in - South 11.5 mph 17.3 mph N/A   Mostly Cloudy
7:55 AM 68.0 °F - 64.4 °F 88% 29.79 in - South 12.7 mph 17.3 mph N/A   Unknown
8:15 AM 69.8 °F - 64.4 °F 83% 29.78 in - South 16.1 mph 23.0 mph N/A   Overcast
8:35 AM 69.8 °F - 64.4 °F 83% 29.79 in - South 12.7 mph 24.2 mph N/A   Overcast
8:55 AM 69.8 °F - 66.2 °F 88% 29.78 in - South 15.0 mph 21.9 mph N/A Thunderstorm Thunderstorm
9:15 AM 71.6 °F - 66.2 °F 83% 29.81 in - NW 6.9 mph 18.4 mph N/A Thunderstorm Thunderstorm
9:35 AM 66.2 °F - 62.6 °F 88% 29.83 in - NNW 6.9 mph - 0.08 in Thunderstorm Thunderstorm
9:55 AM 64.4 °F - 62.6 °F 94% 29.83 in - NNE 4.6 mph - 0.34 in Thunderstorm Thunderstorm
10:15 AM 64.4 °F - 60.8 °F 88% 29.81 in - NE 3.5 mph - 0.08 in   Unknown
10:35 AM 64.4 °F - 62.6 °F 94% 29.82 in - East 4.6 mph - 0.10 in   Unknown
10:55 AM 64.4 °F - 62.6 °F 94% 29.82 in - ESE 3.5 mph - 0.10 in   Unknown
11:15 AM 66.2 °F - 64.4 °F 94% 29.81 in - East 6.9 mph - N/A   Unknown
11:35 AM 66.2 °F - 64.4 °F 94% 29.81 in - Calm Calm - N/A   Unknown
11:55 AM 68.0 °F - 64.4 °F 88% 29.80 in - ESE 6.9 mph - N/A   Unknown
12:15 PM 71.6 °F - 68.0 °F 88% 29.80 in - SE 4.6 mph - N/A   Unknown
12:35 PM 71.6 °F - 68.0 °F 88% 29.80 in - Calm Calm - N/A   Overcast
12:55 PM 75.2 °F - 69.8 °F 83% 29.79 in - SSE 4.6 mph - N/A   Overcast
1:15 PM 75.2 °F - 69.8 °F 83% 29.79 in - WNW 4.6 mph - N/A   Overcast
1:35 PM 78.8 °F - 71.6 °F 78% 29.78 in - South 9.2 mph - N/A   Mostly Cloudy
1:55 PM 80.6 °F 84.6 °F 71.6 °F 74% 29.77 in - SSW 8.1 mph 16.1 mph N/A   Overcast
2:15 PM 82.4 °F 87.2 °F 71.6 °F 70% 29.77 in - SSW 15.0 mph 20.7 mph N/A   Overcast
2:35 PM 82.4 °F 87.2 °F 71.6 °F 70% 29.77 in - SSW 16.1 mph - N/A   Overcast
2:55 PM 82.4 °F 87.2 °F 71.6 °F 70% 29.77 in - SSW 16.1 mph 21.9 mph N/A   Mostly Cloudy
3:15 PM 82.4 °F 87.2 °F 71.6 °F 70% 29.76 in - SSW 16.1 mph - N/A   Overcast
3:35 PM 82.4 °F 87.2 °F 71.6 °F 70% 29.76 in - SW 17.3 mph 23.0 mph N/A   Mostly Cloudy
3:55 PM 82.4 °F 86.3 °F 69.8 °F 66% 29.74 in - SSW 15.0 mph 27.6 mph N/A   Overcast
4:15 PM 82.4 °F 86.3 °F 69.8 °F 66% 29.74 in - SSW 16.1 mph 23.0 mph N/A   Mostly Cloudy
4:35 PM 84.2 °F 89.6 °F 71.6 °F 66% 29.73 in - SSW 12.7 mph 19.6 mph N/A   Mostly Cloudy
4:55 PM 84.2 °F 88.4 °F 69.8 °F 62% 29.73 in - SW 15.0 mph 25.3 mph N/A   Partly Cloudy
5:15 PM 84.2 °F 88.4 °F 69.8 °F 62% 29.73 in - SSW 11.5 mph 21.9 mph N/A   Scattered Clouds
5:35 PM 80.6 °F 83.9 °F 69.8 °F 70% 29.73 in - SSW 10.4 mph - N/A   Mostly Cloudy
5:55 PM 80.6 °F 83.9 °F 69.8 °F 70% 29.69 in - South 8.1 mph - N/A Thunderstorm Thunderstorm
6:15 PM 80.6 °F 83.9 °F 69.8 °F 70% 29.71 in - SSW 8.1 mph - N/A Thunderstorm Thunderstorm
6:35 PM 78.8 °F - 69.8 °F 74% 29.75 in - NNW 12.7 mph 25.3 mph N/A Thunderstorm Thunderstorm
6:55 PM 66.2 °F - 60.8 °F 83% 29.75 in - North 9.2 mph 18.4 mph N/A Thunderstorm Thunderstorm
7:15 PM 64.4 °F - 60.8 °F 88% 29.76 in - NNE 3.5 mph - N/A   Overcast
7:35 PM 64.4 °F - 60.8 °F 88% 29.76 in - NE 3.5 mph - N/A   Overcast
7:55 PM 64.4 °F - 60.8 °F 88% 29.77 in - NE 4.6 mph - N/A   Unknown
8:15 PM 64.4 °F - 62.6 °F 94% 29.78 in - ESE 8.1 mph - N/A   Unknown
8:35 PM 64.4 °F - 60.8 °F 88% 29.78 in - East 5.8 mph - 0.02 in Thunderstorm Thunderstorm
8:55 PM 64.4 °F - 62.6 °F 94% 29.83 in - Calm Calm - 0.56 in Thunderstorm Thunderstorm
9:15 PM 64.4 °F - 60.8 °F 88% 29.83 in - SE 6.9 mph - 0.29 in Thunderstorm Thunderstorm
9:35 PM 64.4 °F - 60.8 °F 88% 29.84 in - West 3.5 mph - 0.34 in Thunderstorm Thunderstorm
9:55 PM 64.4 °F - 62.6 °F 94% 29.87 in - NNW 3.5 mph - 0.38 in Thunderstorm Thunderstorm
10:15 PM 64.4 °F - 62.6 °F 94% 29.84 in - SE 3.5 mph - 0.03 in Thunderstorm Thunderstorm
10:35 PM 64.4 °F - 62.6 °F 94% 29.82 in - SSE 10.4 mph - 0.07 in Thunderstorm Thunderstorm
10:55 PM 64.4 °F - 62.6 °F 94% 29.82 in - SSE 8.1 mph 17.3 mph 0.11 in Thunderstorm Thunderstorm
11:15 PM 64.4 °F - 62.6 °F 94% 29.89 in - West 8.1 mph - 0.04 in Thunderstorm Thunderstorm
11:35 PM 64.4 °F - 62.6 °F 94% 29.86 in - SSW 13.8 mph - 0.07 in Thunderstorm Thunderstorm
11:55 PM 64.4 °F - 62.6 °F 94% 29.82 in - SSE 6.9 mph - 0.11 in Thunderstorm Thunderstorm